Barrow, AK

5:46 AM AKDT on September 22, 2017 (GMT -0800)
Wiley Post-Will Rogers Memorial

Weather History for PABR - December, 2012

Change the Weather History Date:

Sunday, December 30, 2012

  Actual Average Record
Temperature  
Mean Temperature -15 °F -11 °F  
Max Temperature -12 °F -5 °F 30 °F (1973)
Min Temperature -17 °F -17 °F -50 °F (1974)
Degree Days  
Heating Degree Days 80 76  
Month to date heating degree days 2240 2181  
Since 1 July heating degree days 7304 8133  
Cooling Degree Days 0 0  
Month to date cooling degree days 0 0  
Year to date cooling degree days 0 0  
Moisture  
Dew Point -18 °F    
Average Humidity 0    
Maximum Humidity 0    
Minimum Humidity 0    
Precipitation  
Precipitation T in 0.01 in 0.21 in (1967)
Month to date precipitation 0.07 0.14  
Year to date precipitation 6.27 4.53  
Snow  
Snow T in 0.10 in 2.60 in (1967)
Month to date snowfall 4.0 3.4  
Since 1 July snowfall 37.6 23.7  
Snow Depth 6.00 in    
Sea Level Pressure  
Sea Level Pressure 30.02 in    
Wind  
Wind Speed 13 mph (NE)    
Max Wind Speed 21 mph    
Max Gust Speed 25 mph    
Visibility 7 miles    
Events Snow    
T = Trace of Precipitation, MM = Missing Value Source: NWS Daily Summary

Daily Weather History Graph

Daily Weather History Graph

Search for Another Location

Airport or City:

Trip Planner

Search our weather history database for the weather conditions in past years. The results will help you decide how hot, cold, wet, or windy it might be!

Date:

Astronomy

Dec. 31, 1969 Rise Set
Actual Time Sun does not set Sun does not set
Civil Twilight 11:49 AM AKST 3:11 PM AKST
Nautical Twilight 9:44 AM AKST 5:15 PM AKST
Astronomical Twilight 8:18 AM AKST 6:41 PM AKST
Moon 6:43 PM AKST (12/30) 12:24 PM AKST (12/30)
Length of Visible Light 3h 22m
Length of Day
0h 00m
Waning Gibbous, 94% of the Moon is Illuminated
Dec 30
Waning Gibbous
Jan 4
Last Quarter
Jan 11
New
Jan 18
First Quarter
Jan 26
Full

Hourly Weather History & Observations

Time (AKST) Temp. Windchill Dew Point Humidity Pressure Visibility Wind Dir Wind Speed Gust Speed Precip Events Conditions
12:53 AM -15.0 °F -31.0 °F - N/A% 30.04 in 10.0 mi East 6.9 mph - N/A   Mostly Cloudy
1:53 AM -11.9 °F -29.9 °F - N/A% 30.02 in 9.0 mi NE 9.2 mph - N/A   Mostly Cloudy
2:53 AM -13.0 °F -31.3 °F - N/A% 30.03 in 10.0 mi NE 9.2 mph - N/A   Partly Cloudy
3:53 AM -15.0 °F -33.7 °F - N/A% 30.04 in 10.0 mi ENE 9.2 mph - N/A   Clear
4:53 AM -17.0 °F -36.1 °F - N/A% 30.05 in 10.0 mi East 9.2 mph - N/A   Clear
5:53 AM -15.0 °F -34.8 °F - N/A% 30.03 in 10.0 mi ENE 10.4 mph - N/A   Clear
6:53 AM -16.1 °F -37.2 °F - N/A% 30.02 in 10.0 mi ENE 11.5 mph - N/A   Clear
7:53 AM -14.1 °F -33.7 °F -18.0 °F 82% 30.01 in 10.0 mi NE 10.4 mph - N/A   Clear
8:05 AM -14.8 °F -34.6 °F -18.4 °F 84% 30.01 in 10.0 mi ENE 10.4 mph - N/A   Partly Cloudy
8:53 AM -14.1 °F -31.3 °F -18.9 °F 79% 30.02 in 7.0 mi ENE 8.1 mph - N/A   Clear
9:20 AM -14.8 °F -32.2 °F -18.4 °F 84% 30.01 in 7.0 mi NE 8.1 mph - N/A   Partly Cloudy
9:53 AM -14.1 °F -32.6 °F -18.9 °F 79% 30.02 in 7.0 mi NE 9.2 mph - N/A   Ice Crystals
10:53 AM -16.1 °F -33.7 °F -20.9 °F 79% 30.04 in 5.0 mi ENE 8.1 mph - N/A   Partly Cloudy
11:53 AM -14.1 °F -35.7 °F -18.9 °F 79% 30.03 in 10.0 mi NE 12.7 mph - N/A   Partly Cloudy
12:53 PM -14.1 °F -34.7 °F -18.9 °F 79% 30.02 in 4.0 mi NE 11.5 mph - N/A   Partly Cloudy
1:53 PM -14.1 °F -33.7 °F -18.0 °F 82% 30.03 in 8.0 mi NE 10.4 mph - N/A   Partly Cloudy
2:00 PM -14.8 °F -35.6 °F -18.4 °F 84% 30.03 in 5.0 mi NE 11.5 mph - N/A Snow Blowing Snow
2:53 PM -13.0 °F -36.8 °F -18.0 °F 78% 30.03 in 7.0 mi NE 16.1 mph - N/A   Scattered Clouds
3:11 PM -13.0 °F -36.0 °F -18.4 °F 77% 30.02 in 1.8 mi NE 15.0 mph - N/A Snow Blowing Snow
3:51 PM -13.0 °F -36.8 °F -18.4 °F 77% 30.02 in 2.0 mi NE 16.1 mph - N/A Snow Blowing Snow
3:53 PM -13.0 °F -36.8 °F -18.0 °F 78% 30.02 in 2.0 mi NE 16.1 mph - N/A Snow Blowing Snow
4:06 PM -13.0 °F -36.0 °F -18.4 °F 77% 30.01 in 1.8 mi NE 15.0 mph - N/A Snow Blowing Snow
4:17 PM -13.0 °F -36.0 °F -18.4 °F 77% 30.02 in 2.5 mi NE 15.0 mph - N/A Snow Blowing Snow
4:53 PM -13.0 °F -36.0 °F -18.0 °F 78% 30.02 in 2.5 mi NE 15.0 mph - N/A Snow Blowing Snow
5:35 PM -13.0 °F -36.8 °F -18.4 °F 77% 29.99 in 4.0 mi NE 16.1 mph - N/A Snow Blowing Snow
5:53 PM -13.0 °F -36.8 °F -18.0 °F 78% 30.00 in 5.0 mi NE 16.1 mph - N/A Snow Blowing Snow
6:53 PM -13.0 °F -38.2 °F -18.0 °F 78% 29.99 in 3.0 mi NE 18.4 mph - N/A Snow Blowing Snow
7:53 PM -13.0 °F -36.8 °F -18.0 °F 78% 30.01 in 9.0 mi NE 16.1 mph - N/A   Partly Cloudy
8:53 PM -13.0 °F -36.8 °F -18.0 °F 78% 29.99 in 10.0 mi NE 16.1 mph - N/A   Clear
9:48 PM -11.2 °F -35.8 °F -18.4 °F 70% 29.98 in 7.0 mi NE 18.4 mph - N/A   Mostly Cloudy
9:53 PM -11.9 °F -38.0 °F -18.0 °F 74% 29.99 in 7.0 mi NE 20.7 mph - N/A   Mostly Cloudy
10:53 PM -13.0 °F -36.8 °F -18.0 °F 78% 30.00 in 8.0 mi NE 16.1 mph - N/A   Mostly Cloudy
11:53 PM -11.9 °F -36.8 °F -17.0 °F 78% 29.99 in 10.0 mi NE 18.4 mph - N/A   Mostly Cloudy